Mackinac Island, MI

9:16 AM EDT on July 25, 2017 (GMT -0400)
Mackinac Island

Weather History for KMCD - October, 2011

Change the Weather History Date:

Tuesday, October 11, 2011

  Actual Average Record
Temperature  
Mean Temperature 62 °F -  
Max Temperature 68 °F 53 °F 68 °F (2011)
Min Temperature 55 °F 42 °F 28 °F (1996)
Degree Days  
Heating Degree Days 4    
Growing Degree Days 12 (Base 50)    
Moisture  
Dew Point 52 °F    
Average Humidity 74    
Maximum Humidity 94    
Minimum Humidity 52    
Precipitation  
Precipitation 0.00 in - - ()
Sea Level Pressure  
Sea Level Pressure 30.05 in    
Wind  
Wind Speed 4 mph (SE)    
Max Wind Speed 8 mph    
Max Gust Speed 17 mph    
Visibility 8 miles    
Events      
Averages and records for this station are not official NWS values.
T = Trace of Precipitation, MM = Missing Value Source: NWS Daily Summary

Daily Weather History Graph

Daily Weather History Graph

Search for Another Location

Airport or City:

Trip Planner

Search our weather history database for the weather conditions in past years. The results will help you decide how hot, cold, wet, or windy it might be!

Date:

Astronomy

Oct. 11, 2011 Rise Set
Actual Time 7:49 AM EDT 7:00 PM EDT
Civil Twilight 7:19 AM EDT 7:30 PM EDT
Nautical Twilight 6:45 AM EDT 8:04 PM EDT
Astronomical Twilight 6:10 AM EDT 8:39 PM EDT
Moon 6:28 PM EDT (10/11) 7:28 AM EDT (10/11)
Length of Visible Light 12h 10m
Length of Day
11h 10m
Full, 100% of the Moon is Illuminated
Oct 11
Full
Oct 11
Full
Oct 19
Last Quarter
Oct 26
New
Nov 2
First Quarter

Hourly Weather History & Observations

Time (EDT) Temp. Dew Point Humidity Pressure Visibility Wind Dir Wind Speed Gust Speed Precip Events Conditions
12:15 AM 60.8 °F 50.0 °F 68% 30.11 in 10.0 mi South 4.6 mph - N/A   Unknown
12:34 AM 60.8 °F 50.0 °F 68% 30.10 in 10.0 mi South 4.6 mph - N/A   Unknown
12:55 AM 60.8 °F 50.0 °F 68% 30.10 in 10.0 mi SSE 3.5 mph - N/A   Unknown
1:15 AM 60.8 °F 50.0 °F 68% 30.10 in 10.0 mi SSE 4.6 mph - N/A   Unknown
1:34 AM 59.0 °F 50.0 °F 72% 30.10 in 10.0 mi South 3.5 mph - N/A   Unknown
1:55 AM 59.0 °F 50.0 °F 72% 30.10 in 10.0 mi SSE 4.6 mph - N/A   Unknown
2:14 AM 59.0 °F 50.0 °F 72% 30.10 in 10.0 mi South 5.8 mph - N/A   Unknown
2:34 AM 59.0 °F 50.0 °F 72% 30.09 in 10.0 mi South 5.8 mph - N/A   Unknown
2:55 AM 59.0 °F 50.0 °F 72% 30.09 in 10.0 mi South 3.5 mph - N/A   Unknown
3:15 AM 59.0 °F 50.0 °F 72% 30.09 in 10.0 mi South 3.5 mph - N/A   Unknown
3:34 AM 59.0 °F 50.0 °F 72% 30.08 in 10.0 mi South 3.5 mph - N/A   Unknown
3:55 AM 59.0 °F 50.0 °F 72% 30.08 in 10.0 mi South 3.5 mph - N/A   Unknown
4:14 AM 59.0 °F 50.0 °F 72% 30.08 in 10.0 mi South 3.5 mph - N/A   Unknown
4:34 AM 59.0 °F 50.0 °F 72% 30.08 in 10.0 mi Calm Calm - N/A   Unknown
5:14 AM 59.0 °F 50.0 °F 72% 30.08 in 10.0 mi South 4.6 mph - N/A   Unknown
5:34 AM 59.0 °F 50.0 °F 72% 30.08 in 10.0 mi Calm Calm - N/A   Unknown
6:14 AM 60.8 °F 50.0 °F 68% 30.08 in 10.0 mi SSE 3.5 mph - N/A   Unknown
6:34 AM 59.0 °F 50.0 °F 72% 30.08 in 10.0 mi South 3.5 mph - N/A   Unknown
7:14 AM 60.8 °F 50.0 °F 68% 30.08 in 10.0 mi South 3.5 mph - N/A   Unknown
7:34 AM 60.8 °F 50.0 °F 68% 30.08 in 10.0 mi Calm Calm - N/A   Unknown
7:55 AM 60.8 °F 50.0 °F 68% 30.08 in 10.0 mi SSE 3.5 mph - N/A   Unknown
8:14 AM 60.8 °F 50.0 °F 68% 30.08 in 10.0 mi SSE 3.5 mph - N/A   Unknown
8:35 AM 60.8 °F 50.0 °F 68% 30.08 in 10.0 mi SSE 3.5 mph - N/A   Unknown
8:55 AM 60.8 °F 50.0 °F 68% 30.08 in 10.0 mi South 3.5 mph - N/A   Unknown
9:14 AM 60.8 °F 50.0 °F 68% 30.08 in 4.0 mi Calm Calm - N/A   Haze
9:35 AM 60.8 °F 50.0 °F 68% 30.08 in 7.0 mi Calm Calm - N/A   Unknown
10:15 AM 62.6 °F 50.0 °F 63% 30.07 in 5.0 mi Calm Calm - N/A   Haze
10:55 AM 64.4 °F 51.8 °F 64% 30.07 in 3.0 mi Calm Calm - N/A   Haze
11:14 AM 68.0 °F 50.0 °F 52% 30.06 in 5.0 mi Calm Calm - N/A   Haze
11:35 AM 64.4 °F 53.6 °F 68% 30.05 in 4.0 mi Calm Calm - N/A   Haze
11:54 AM 62.6 °F 53.6 °F 72% 30.05 in 5.0 mi ESE 3.5 mph - N/A   Haze
12:14 PM 62.6 °F 53.6 °F 72% 30.05 in 2.5 mi ESE 4.6 mph - N/A   Haze
12:34 PM 60.8 °F 53.6 °F 77% 30.05 in 7.0 mi East 4.6 mph - N/A   Unknown
12:54 PM 60.8 °F 53.6 °F 77% 30.05 in 3.0 mi East 5.8 mph - N/A   Haze
1:15 PM 62.6 °F 53.6 °F 72% 30.04 in 2.5 mi East 3.5 mph - N/A   Haze
1:34 PM 62.6 °F 53.6 °F 72% 30.03 in 2.0 mi ESE 5.8 mph - N/A   Haze
1:55 PM 60.8 °F 53.6 °F 77% 30.02 in 3.0 mi East 8.1 mph - N/A   Haze
2:14 PM 62.6 °F 53.6 °F 72% 30.02 in 2.5 mi ESE 4.6 mph - N/A   Haze
2:34 PM 62.6 °F 53.6 °F 72% 30.01 in 3.0 mi ESE 5.8 mph - N/A   Haze
2:55 PM 60.8 °F 53.6 °F 77% 30.00 in 2.5 mi ESE 6.9 mph - N/A   Haze
3:14 PM 60.8 °F 53.6 °F 77% 30.00 in 2.0 mi ESE 8.1 mph - N/A   Haze
3:35 PM 60.8 °F 53.6 °F 77% 30.00 in 5.0 mi East 6.9 mph 17.3 mph N/A   Haze
3:54 PM 60.8 °F 55.4 °F 82% 30.00 in 7.0 mi East 5.8 mph - N/A   Unknown
4:15 PM 60.8 °F 53.6 °F 77% 29.99 in 7.0 mi East 6.9 mph - N/A   Unknown
4:34 PM 60.8 °F 53.6 °F 77% 29.99 in 7.0 mi East 6.9 mph - N/A   Unknown
4:55 PM 59.0 °F 53.6 °F 82% 29.98 in 10.0 mi East 5.8 mph - N/A   Unknown
5:14 PM 59.0 °F 53.6 °F 82% 29.98 in 7.0 mi East 3.5 mph - N/A   Unknown
5:35 PM 59.0 °F 53.6 °F 82% 29.97 in 7.0 mi East 4.6 mph - N/A   Unknown
5:54 PM 57.2 °F 53.6 °F 88% 29.97 in 10.0 mi Calm Calm - N/A   Unknown
6:14 PM 57.2 °F 53.6 °F 88% 29.97 in 10.0 mi ENE 3.5 mph - N/A   Unknown
6:35 PM 57.2 °F 53.6 °F 88% 29.97 in 10.0 mi Calm Calm - N/A   Unknown
6:54 PM 55.4 °F 53.6 °F 94% 29.97 in 10.0 mi East 3.5 mph - N/A   Unknown
7:14 PM 55.4 °F 53.6 °F 94% 29.97 in 10.0 mi Calm Calm - N/A   Unknown
7:34 PM 55.4 °F 53.6 °F 94% 29.97 in 10.0 mi Calm Calm - N/A   Unknown
7:55 PM 55.4 °F 53.6 °F 94% 29.97 in 10.0 mi Calm Calm - N/A   Unknown
8:14 PM 55.4 °F 53.6 °F 94% 29.97 in 10.0 mi Calm Calm - N/A   Unknown
8:34 PM 55.4 °F 53.6 °F 94% 29.97 in 10.0 mi Calm Calm - N/A   Unknown
8:55 PM 59.0 °F 51.8 °F 77% 29.97 in 10.0 mi SE 3.5 mph - N/A   Unknown
9:14 PM 62.6 °F 51.8 °F 68% 29.97 in 10.0 mi Calm Calm - N/A   Unknown
9:34 PM 62.6 °F 51.8 °F 68% 29.97 in 10.0 mi Calm Calm - N/A   Unknown
9:55 PM 62.6 °F 51.8 °F 68% 29.98 in 10.0 mi South 3.5 mph - N/A   Unknown
10:14 PM 62.6 °F 51.8 °F 68% 29.97 in 10.0 mi South 3.5 mph - N/A   Unknown
10:35 PM 62.6 °F 50.0 °F 63% 29.98 in 10.0 mi South 3.5 mph - N/A   Unknown
10:54 PM 62.6 °F 50.0 °F 63% 29.98 in 10.0 mi Calm Calm - N/A   Unknown
11:14 PM 60.8 °F 50.0 °F 68% 29.98 in 10.0 mi Calm Calm - N/A   Unknown
11:35 PM 60.8 °F 48.2 °F 63% 29.97 in 10.0 mi South 3.5 mph - N/A   Unknown
11:54 PM 60.8 °F 50.0 °F 68% 29.97 in 10.0 mi Calm Calm - N/A   Unknown